Location: El Coyote
(32.3706°N, 116.9434°W)
Time: 02:58:59
(UTC+00:00)

Daily predictions for brighter satellites

Satellite Brightness Start Highest point End
(mag) Time Altitude Azimuth Time Altitude Azimuth Time Altitude Azimuth
Feng Yun 1-1 Rocket 4.5 03:04:55 10° S 03:10:28 76° WSW 03:15:55 10° NNW
Cosmos 2344 4.1 03:04:03 10° S 03:11:17 35° ESE 03:17:49 10° NE
IRS-1C Rocket 4.3 03:09:52 10° SSE 03:14:57 53° ENE 03:20:04 10° N
Cosmos 2061 Rocket 4.1 03:09:07 10° S 03:15:20 87° W 03:21:33 10° N
Delta 2 Rocket 4.4 03:13:17 10° W 03:16:09 26° SSW 03:19:10 10° SSE
CSL-04 Rocket 3.9 03:12:39 10° SSE 03:17:46 53° ENE 03:22:57 10° N
Cosmos 1400 Rocket 2.9 03:15:54 10° N 03:19:47 80° W 03:23:42 10° S
Cosmos 1544 3.9 03:17:13 10° NNE 03:20:23 31° E 03:23:32 10° SE
CENTAUR R/B 3.4 03:15:23 10° NNW 03:23:58 70° ENE 03:33:00 10° SE
Cosmos 2227 Rocket 3.6 03:19:53 10° N 03:24:13 22° ENE 03:28:31 10° ESE
Cosmos 1151 Rocket 3.0 03:21:00 10° S 03:25:13 62° E 03:29:26 10° NNE
deb Chang Zheng 4 3.6 03:22:16 10° S 03:26:22 76° WSW 03:30:30 10° NNW
Cosmos 1980 Rocket 3.3 03:22:38 10° SSE 03:26:53 23° E 03:31:12 10° NE
COSMOS 2487 3.2 03:25:28 10° NNW 03:28:27 44° WSW 03:31:24 10° S
ASTRO E2 2.6 03:24:39 10° W 03:28:34 78° S 03:32:28 10° E
Resurs 1-3 4.3 03:25:57 10° SE 03:29:57 36° ENE 03:33:57 10° N
Cosmos 2369 4.4 03:29:48 10° SSE 03:34:43 32° ESE 03:39:40 10° NE
Cosmos 1666 Rocket 4.1 03:31:18 10° N 03:35:28 40° E 03:39:21 12° SSE
USA 238 DEB 4.3 03:28:16 10° NNW 03:35:28 51° NE 03:42:07 14° SE
USA 238 4.3 03:28:23 10° NNW 03:35:35 50° NE 03:42:12 14° SE
Cosmos 1805 Rocket 3.9 03:31:52 10° NNW 03:36:17 68° W 03:40:39 10° S
SL-12 R/B (Aux Motor) 4.3 03:32:43 10° SW 03:37:50 89° SSE 03:40:04 10° NE
USA 234 4.1 03:32:36 10° SSE 03:38:47 44° SW 03:45:00 10° NW
Cosmos 44 3.0 03:34:48 10° NNW 03:39:07 69° ENE 03:42:47 14° SE
SJ 16-02 3.1 03:39:52 13° ESE 03:40:21 13° E 03:42:25 10° ENE
Gbstr 26 Del rocket 4.2 03:33:32 10° NW 03:40:58 74° NE 03:46:04 16° SE
Okean O Rocket 4.3 03:38:42 10° SW 03:41:36 17° W 03:44:30 10° NW
Cosmos 1633 Rocket 3.5 03:40:11 10° N 03:44:18 40° E 03:47:27 16° SE
JB-3 4.4 03:40:15 10° NNE 03:44:22 63° E 03:48:27 10° S
H-2A R/B 2.7 03:41:19 10° S 03:45:45 80° WSW 03:50:04 10° NNW
Cosmos 1697 Rocket 2.6 03:40:08 10° SSW 03:45:46 78° ESE 03:51:27 10° NNE
CZ-4 R/B 3.9 03:43:00 10° SW 03:46:01 21° W 03:49:07 10° NW
OAO 3 Rocket 3.6 03:43:02 10° W 03:47:54 63° N 03:52:49 10° E
Cosmos 2360 4.1 03:43:09 10° SSW 03:48:48 78° ESE 03:54:29 10° NNE
Landsat 7 4.1 03:46:16 15° SE 03:50:01 49° ENE 03:54:33 10° N
Cosmos 1515 4.2 03:50:29 17° SSE 03:52:53 36° E 03:56:22 10° NNE
Sich 1 3.8 03:48:45 10° NNW 03:52:59 53° W 03:57:10 10° S
Cosmos 1470 Rocket 4.5 03:51:09 10° NNE 03:54:57 29° E 03:56:45 22° ESE
Cosmos 1570 Rocket 4.0 03:50:29 10° NNW 03:55:44 76° ENE 03:59:57 16° SSE
Resurs 01 Rocket 2.5 03:53:43 20° ESE 03:56:02 33° ENE 03:59:59 10° N
Cosmos 1486 Rocket 3.9 03:52:14 10° S 03:57:32 79° ESE 04:02:49 10° NNE
SJ-6B 3.4 03:54:00 10° S 03:57:46 53° W 04:01:28 10° NNW
Tsikada Rocket 4.4 03:53:50 10° NNW 04:00:03 66° W 04:06:09 10° S
Cosmos 1814 Rocket 4.2 03:55:56 10° NNW 04:01:01 68° WSW 04:05:47 12° S
Cosmos 2297 Rocket 2.2 03:55:46 10° NNW 04:01:26 73° ENE 04:05:25 20° SSE
Cosmos 1315 Rocket 2.7 03:57:48 10° N 04:01:52 81° E 04:04:41 19° S
Cosmos 1515 Rocket 3.7 03:58:59 16° SSE 04:02:14 50° E 04:06:28 10° NNE
ARGOS Delta rocket 4.1 03:59:32 10° NNE 04:04:59 62° E 04:10:14 10° S
Cosmos 1340 2.8 04:03:00 23° SSE 04:05:01 48° E 04:08:38 10° NNE
Cosmos 1184 Rocket 3.2 04:05:15 34° E 04:05:20 34° E 04:08:06 10° NNE
Cosmos 389 Rocket 4.1 04:03:57 10° NNE 04:06:34 20° ENE 04:06:38 20° ENE
Cosmos 405 3.2 04:03:49 10° N 04:07:07 45° E 04:08:03 35° SE
Okean-O 4.0 04:03:42 10° SSW 04:07:46 36° W 04:11:50 10° NNW
ATLAS 5 CENTAUR R/B 3.3 03:55:14 10° W 04:08:01 28° SSW 04:11:26 17° SSE
SL-16 R/B 4.2 04:15:42 11° ENE 04:15:42 11° ENE 04:16:20 10° ENE
Centaur AC-72 4.4 04:11:46 10° SW 04:15:45 18° S 04:17:54 15° SSE
IGS 5A 4.2 04:14:25 13° S 04:17:56 49° W 04:21:58 10° NNW
Cosmos 1743 3.3 04:16:22 10° NNE 04:19:53 36° E 04:20:13 36° E
Meteor 1-27 Rocket 3.7 04:15:42 10° S 04:21:24 90° SE 04:27:16 10° N
CZ-4B R/B 2.1 04:20:46 10° N 04:23:50 48° WNW 04:26:12 15° SSW
Cosmos 1503 Rocket 3.9 04:21:26 10° SSW 04:26:40 84° ESE 04:31:59 10° NNE
ATLAS 2AS CENTAUR R/B 2.9 04:23:11 10° SSW 04:30:58 77° ESE 04:38:40 10° NNE
ERS-1 Rocket 4.5 04:32:44 20° ENE 04:33:17 20° ENE 04:36:53 10° NNE
Cosmos 2278 3.7 04:30:19 24° S 04:33:35 56° ESE 04:39:07 10° NNE
SPOT 1/Viking Rocket 3.4 04:34:07 36° SSE 04:36:18 80° ENE 04:41:28 10° N
H-2A R/B 4.3 04:36:12 10° NNW 04:39:29 24° WNW 04:42:47 10° SW
Cosmos 2219 3.1 04:33:55 10° NNW 04:39:34 90° NE 04:41:46 39° SSE
Meteor 1-11 Rocket 3.9 04:36:17 10° NNW 04:42:15 75° W 04:45:33 28° S
Okean 1 3.2 04:44:53 66° E 04:44:53 66° E 04:48:48 10° NNE
RESURS DK-1 2.2 04:45:23 61° S 04:46:03 83° ESE 04:50:11 10° NNE
Cosmos 2082 4.0 04:41:24 10° N 04:46:51 49° ENE 04:48:04 42° ESE
Cosmos 1464 Rocket 4.2 04:42:01 12° SSW 04:47:52 68° W 04:54:01 10° N
Cosmos 1536 3.0 04:44:42 10° NNW 04:48:42 69° W 04:49:24 56° SSW
Cosmos 2263 Rocket 3.4 04:46:57 10° N 04:51:30 25° ENE 04:52:15 24° ENE
SL-4 R/B 2.7 04:53:10 10° NW 04:57:28 45° NE 04:57:41 44° NE
Ariane Rocket 3.3 04:58:25 41° SSW 05:00:02 62° WSW 05:05:04 10° NNW
CZ-2C R/B 3.9 05:01:08 10° NNE 05:05:24 59° ENE 05:05:24 59° ENE
Cosmos 2227 Rocket 3.1 05:03:05 10° NW 05:08:23 42° WSW 05:10:21 31° SSW
ASTRO E2 4.1 05:04:53 10° W 05:07:05 29° WSW 05:07:05 29° WSW
Cosmos 1634 Rocket 4.1 05:08:17 52° ESE 05:08:46 53° E 05:14:46 10° NNE
Cosmos 1092 Rocket 4.2 05:03:47 10° N 05:09:43 48° E 05:10:09 47° E
Cosmos 1980 Rocket 3.5 05:05:23 10° SW 05:10:34 38° WNW 05:15:49 10° N
Cosmos 1933 Rocket 4.1 05:06:50 10° NNW 05:11:10 54° W 05:11:39 51° WSW
Nadezhda 4 Rocket 3.9 05:05:04 10° N 05:11:17 86° W 05:12:52 53° S
SPOT 5 3.1 05:13:35 62° E 05:13:43 62° ENE 05:18:53 10° N
Helios 1A Rocket 3.5 05:17:41 52° N 05:17:41 52° N 05:20:45 10° N
Gblst 52 Del rocket 4.4 05:09:57 10° SW 05:17:07 77° SE 05:23:19 10° NE
Terra 2.6 05:19:10 40° NE 05:19:10 40° NE 05:22:55 10° N
SJ 16-02 2.6 05:16:44 26° WSW 05:18:28 38° WNW 05:22:32 10° N
Cosmos 2322 Rocket 3.4 05:20:35 28° ENE 05:20:35 28° ENE 05:23:39 10° NE
Meteor 2-14 Rocket 4.3 05:12:44 10° N 05:18:50 90° ENE 05:19:53 64° S
Meteor 2-4 Rocket 3.6 05:22:05 74° ESE 05:22:19 75° E 05:28:02 10° NNE
Milstar 3 Cent rocket 4.3 05:13:00 10° W 05:26:04 33° SW 05:28:23 30° SSW
Cosmos 783 Rocket 4.5 05:24:10 10° NNW 05:29:00 74° NNE 05:29:00 74° NNE
SPOT 3 Rocket 4.0 05:30:22 49° WSW 05:30:49 50° W 05:35:50 10° NNW
Timation 2 Rocket 4.0 05:24:33 10° NNW 05:31:15 87° WSW 05:32:15 68° SSE
OAO 3 Rocket 3.6 05:26:39 10° WNW 05:30:38 58° WNW 05:30:38 58° WNW
Resurs 01 Rocket 3.9 05:31:16 15° WSW 05:32:33 16° W 05:35:19 10° NW
Spot 2 Rocket 3.5 05:34:06 74° WNW 05:34:06 74° WNW 05:38:49 10° NNW
Cosmos 2026 Rocket 3.9 05:29:44 10° N 05:35:55 70° E 05:35:58 70° E
Cosmos 773 Rocket 4.3 05:39:41 10° NNW 05:44:13 63° NW 05:44:13 63° NW
Meteor 2-8 Rocket 4.4 05:48:48 75° WSW 05:49:03 76° W 05:55:10 10° N
Cosmos 1627 Rocket 4.5 05:49:24 10° N 05:55:38 77° W 05:55:40 77° W
SL-16 R/B 2.5 05:57:29 64° WNW 05:57:29 64° WNW 06:02:57 10° NNE
USA 215 3.1 05:51:58 10° NE 05:58:09 78° E 05:58:09 78° E
ERS-1 Rocket 4.3 06:12:43 34° WNW 06:12:43 34° WNW 06:16:24 10° NNW
Cosmos 2279 Rocket 4.1 06:12:36 69° NW 06:12:36 69° NW 06:18:23 10° N
ARIANE 5 R/B 4.4 06:15:52 30° NW 06:15:52 30° NW 06:18:21 10° NNW
Cosmos 2360 Rocket 3.2 06:25:20 41° NNE 06:25:20 41° NNE 06:28:55 10° NNE
Cosmos 2263 Rocket 3.6 06:30:24 10° NW 06:33:56 30° WNW 06:33:56 30° WNW
ATLAS CENTAUR R/B 4.3 06:36:20 10° NNE 06:37:56 13° NE 06:37:56 13° NE
Terra 4.5 06:58:03 13° WNW 06:58:03 13° WNW 06:58:58 10° WNW
ATLAS 3B R/B 3.0 06:48:51 10° NNW 06:55:31 73° NNW 06:55:31 73° NNW
Cosmos 2322 Rocket 4.0 07:02:20 24° WNW 07:02:36 24° WNW 07:07:04 10° N
Cosmos 2333 Rocket 3.5 07:07:35 36° N 07:07:35 36° N 07:10:56 10° NNE
Cosmos 1844 Rocket 4.0 07:09:59 10° NNW 07:13:07 35° NNW 07:13:07 35° NNW
CZ-4C R/B 4.3 07:19:01 10° N 07:25:43 32° NE 07:28:18 27° E
Cosmos 2219 Rocket 3.6 07:29:40 34° N 07:29:40 34° N 07:32:52 10° NNE
ADEOS Rocket 4.0 07:50:02 39° N 07:50:02 39° N 07:53:34 10° NNW
Cosmos 2237 Rocket 3.8 07:58:41 28° NE 07:58:41 28° NE 08:01:27 10° NNE
COSMOS 2428 4.1 08:00:10 34° NNW 08:00:10 34° NNW 08:03:39 10° N
USA 267 3.8 08:11:25 52° NE 08:11:43 52° NE 08:18:01 10° NNW
ATLAS CENTAUR R/B 4.4 08:13:23 10° NW 08:13:55 13° NW 08:13:55 13° NW
Resurs 1-4 Rocket 4.4 08:14:28 10° NE 08:16:15 16° ENE 08:16:15 16° ENE
Cosmos 2278 Rocket 3.4 08:28:36 10° N 08:32:36 40° NNE 08:32:36 40° NNE
SL-16 R/B 3.6 08:45:29 32° ENE 08:45:29 32° ENE 08:48:59 10° NE
NOSS 3-1 (A) 4.1 08:41:24 10° NNW 08:49:28 85° ENE 08:50:04 79° SE
COSMOS 2455 4.2 08:57:22 31° E 08:57:22 31° E 09:01:30 10° NE
Meteor 1-24 Rocket 4.4 09:05:48 49° NE 09:05:48 49° NE 09:10:01 10° NNE
ATLAS 5 CENTAUR R/B 4.0 09:00:37 10° NNW 09:04:57 31° NNW 09:04:57 31° NNW
Meteor 2-10 Rocket 4.5 09:02:51 10° N 09:06:51 47° N 09:06:51 47° N
Lacrosse 5 3.1 09:14:24 39° N 09:14:24 39° N 09:17:51 10° NNE
CZ-4C R/B 3.4 09:06:56 10° NW 09:13:24 54° W 09:13:24 54° W
Lacrosse 5 rocket 3.8 09:19:29 19° NNE 09:19:29 19° NNE 09:20:43 10° NNE
Meteor 2-5 Rocket 4.2 09:27:59 56° NNW 09:27:59 56° NNW 09:32:37 10° N
CZ-2D R/B 2.6 09:24:47 10° NNE 09:29:03 58° N 09:29:03 58° N
Cosmos 2237 Rocket 4.1 09:40:30 18° NW 09:40:30 18° NW 09:44:09 10° NNW
Cosmos 2154 Rocket 4.4 09:46:37 10° N 09:52:50 57° E 09:54:59 39° SE
Resurs 1-4 Rocket 2.9 09:53:04 10° N 09:57:19 40° NW 09:57:19 40° NW
Cosmos 292 Rocket 4.0 10:00:36 64° N 10:00:36 64° N 10:04:43 10° NNE
SL-16 R/B 2.4 10:00:07 69° S 10:00:56 83° WSW 10:07:11 10° NNW
Cosmos 1943 Rocket 2.2 09:59:36 10° NNW 10:05:18 79° ENE 10:06:32 56° SE
SEDSat Delta rocket 4.3 10:07:15 49° SSE 10:07:18 49° SSE 10:13:46 10° E
Cosmos 2297 4.1 10:01:40 10° NNW 10:07:22 62° ENE 10:10:29 27° SE
Cosmos 2228 4.2 10:06:15 10° NNE 10:10:19 38° E 10:11:19 33° ESE
Cosmos 1536 Rocket 4.4 10:13:47 42° NW 10:13:47 42° NW 10:17:02 10° N
ADEOS II 2.1 10:08:07 10° N 10:13:18 61° WNW 10:13:19 61° WNW
IDEFIX/ARIANE 42P 2.4 10:08:22 10° N 10:13:38 76° WNW 10:13:52 74° WSW
OAO 2 Rocket 3.4 10:16:57 63° SE 10:16:57 63° SE 10:21:27 10° ENE
Cosmos 2074 Rocket 4.0 10:10:25 10° NNW 10:16:36 60° W 10:17:16 56° WSW
Cosmos 2278 Rocket 4.4 10:14:04 10° WNW 10:14:24 11° WNW 10:14:24 11° WNW
Cosmos 1455 4.1 10:19:41 10° NNW 10:21:07 21° NNW 10:21:07 21° NNW
Cosmos 1295 Rocket 4.4 10:17:31 10° N 10:23:54 84° W 10:26:12 43° S
NOSS 3-3 (A) 3.6 10:23:18 63° SW 10:24:14 82° WNW 10:30:19 10° NNE
NOSS 3-3 (C) 3.6 10:23:24 63° SW 10:24:20 83° WNW 10:30:24 10° NNE
Meteor 1-21 Rocket 4.2 10:23:47 51° S 10:25:16 82° E 10:30:52 10° N
Cosmos 614 Rocket 4.0 10:20:26 10° NNW 10:25:39 78° ENE 10:27:52 35° SSE
SL-16 R/B 3.6 10:27:21 22° WNW 10:27:55 23° WNW 10:32:20 10° N
Cosmos 1271 Rocket 3.1 10:24:39 10° N 10:27:50 59° NNW 10:27:50 59° NNW
IRS-1D 3.5 10:23:41 10° NNE 10:29:01 87° E 10:30:15 54° S
DNEPR-1 R/B 3.3 10:29:53 88° ESE 10:29:53 88° ESE 10:34:15 10° NNE
Cosmos 2251 Rocket 4.4 10:25:45 10° N 10:30:52 49° ENE 10:35:58 10° SE
Cosmos 2184 Rocket 4.3 10:25:57 10° NNW 10:31:48 45° W 10:32:27 43° WSW
Cosmos 2369 Rocket 3.1 10:26:32 10° N 10:31:55 46° ENE 10:37:15 10° SE
Cosmos 1610 Rocket 4.4 10:29:16 10° NNW 10:35:22 69° W 10:37:27 42° SSW
COSMOS 2441 4.3 10:33:19 10° N 10:38:09 71° WNW 10:38:59 57° SW
MOS 1 Rocket 4.2 10:39:46 30° WNW 10:39:46 30° WNW 10:42:28 10° NNW
COSMOS 2455 3.8 10:40:30 28° W 10:42:01 32° WNW 10:47:22 10° N
Cosmos 1606 Rocket 3.9 10:38:46 10° N 10:43:07 61° E 10:45:25 26° SSE
Cosmos 2181 Rocket 4.2 10:42:09 23° S 10:46:11 71° E 10:52:20 10° N
Helios 1B rocket 2.5 10:44:58 10° NNE 10:49:01 69° E 10:50:15 42° S
Cosmos 1328 3.6 10:49:40 66° SW 10:50:04 74° W 10:54:02 10° N
Cosmos 962 Rocket 4.4 10:43:57 10° N 10:50:05 89° W 10:54:48 18° S
Cosmos 1603 3.7 10:49:16 41° SW 10:51:11 69° WNW 10:56:49 10° NNE
ALOS 3.2 10:49:04 10° NNE 10:53:30 43° E 10:56:51 16° SSE
Helios 1A 3.7 10:56:14 34° W 10:56:14 34° W 10:59:36 10° NNW
MOS 1-B Rocket 4.3 10:50:51 10° SSE 10:56:24 61° ENE 11:01:57 10° N
Lacrosse 5 4.5 10:56:15 10° NW 10:56:50 10° NNW 10:57:25 10° NNW
CZ-2C R/B 3.1 10:55:14 10° NNE 11:00:11 52° E 11:04:03 15° S
Cosmos 1420 Rocket 4.3 11:00:33 22° S 11:03:47 64° ESE 11:08:55 10° NNE
Lacrosse 4 Rocket 2.5 11:03:47 19° S 11:06:23 40° ESE 11:10:23 10° NE
Cosmos 1892 Rocket 3.7 11:10:34 33° SW 11:12:14 54° W 11:16:37 10° N
Cosmos 1371 Rocket 3.9 11:10:42 28° SSW 11:13:24 70° WNW 11:18:34 10° NNE
GPS 2-04 Rocket1 2.4 11:12:57 37° W 11:14:07 70° NNW 11:17:39 10° ENE
Cosmos 1825 3.7 11:11:12 10° SSE 11:14:33 34° E 11:17:56 10° NNE
Cosmos 407 Rocket 3.7 11:12:06 10° NNW 11:17:24 76° ENE 11:22:37 10° SSE
Meteor 1-11 4.2 11:16:50 18° SSW 11:21:12 73° W 11:26:59 10° N
Cosmos 1943 4.2 11:19:48 22° WSW 11:22:25 32° WNW 11:27:28 10° N
Cosmos 1726 Rocket 3.6 11:18:13 10° NNW 11:22:32 57° W 11:25:45 17° SSW
Meteor 2-1 Rocket 4.4 11:21:41 10° NNW 11:27:10 50° W 11:32:25 11° SSW
Cosmos 1140 Rocket 3.4 11:22:06 10° NNW 11:27:21 81° WSW 11:32:34 10° SSE
CZ-2C R/B 3.4 11:27:55 10° SSE 11:28:53 11° SE 11:29:52 10° SE
SeaSat 1 2.6 11:26:31 10° NNE 11:31:27 74° ESE 11:35:58 12° SSW
Cosmos 1892 2.7 11:29:36 21° SSW 11:31:55 58° W 11:35:38 10° N
Cosmos 2366 rocket 3.9 11:27:35 10° NNW 11:33:42 68° W 11:39:50 10° S
Cosmos 1484 Rocket 4.1 11:30:04 10° NNE 11:33:43 39° E 11:37:24 10° SSE
BREEZE-M DEB (TANK) 4.1 11:32:29 18° W 11:34:32 40° NNW 11:41:42 10° NE
SL-24 DEB 4.5 11:30:51 13° SSW 11:34:50 50° W 11:39:25 10° NNW
Cosmos 2341 Rocket 4.4 11:29:18 10° NNW 11:35:16 43° W 11:41:14 10° SSW
SL-8 Rocket 4.3 11:34:40 10° NNW 11:40:41 48° W 11:46:41 10° SSW
Cosmos 1408 3.3 11:38:52 21° SW 11:40:43 34° W 11:44:04 10° NNW
IRS-1C 4.2 11:35:49 10° N 11:41:03 60° WNW 11:46:03 11° SSW
DELTA 2 DEB (DPAF) 4.1 11:42:16 10° SSE 11:46:41 85° WSW 11:51:07 10° NNW
FENGYUN 3A 4.2 11:43:34 10° N 11:48:34 40° WNW 11:53:13 12° SW
Cosmos 2263 4.5 11:46:16 10° NW 11:51:40 46° WSW 11:57:06 10° S
ARIANE 5 R/B 2.7 11:47:53 10° N 11:52:46 53° WNW 11:57:36 10° SSW
